Location: Geroldsau
(48.7259°N, 8.2466°E)
Time: 10:33:43
(UTC+00:00)

Meteor 2-14 Rocket - Pass Details

Date: 20 June 2021
Orbit: 937 x 956 km, 82.5° (Epoch: 03 August)

Event Time Altitude Azimuth Distance (km) Brightness Sun altitude
Exits shadow 02:11:39 - 189° (S) 2,903 6.4 -9.2°
Reaches altitude 10° 02:12:18 10° 190° (S) 2,661 6.3 -9.1°
Maximum altitude 02:18:24 86° 278° (W) 960 4.5 -8.5°
Drops below altitude 10° 02:24:35 10° 9° (N) 2,693 7.9 -7.8°
Sets 02:27:06 0° 10° (N) 3,644 8.7 -7.6°
